Location: Bradford+West+Gwillimbury,+ON,+Canadà
(44.1162°N, 79.5735°W)
Time: 16:16:45
(UTC-04:00)

STARLINK-2521 - Pass Details

Date: 22 June 2021
Orbit: 546 x 548 km, 53.1° (Epoch: 05 August)

Event Time Altitude Azimuth Distance (km) Brightness Sun altitude
Exits shadow 04:08:51 11° 177° (S) 1,762 5.8 -12.2°
Maximum altitude 04:11:44 20° 130° (SE) 1,287 5.5 -11.9°
Drops below altitude 10° 04:14:46 10° 83° (E) 1,814 7.0 -11.5°
Sets 04:17:26 0° 66° (ENE) 2,711 8.5 -11.2°
